Location: ?????????
(41.0761°N, 22.8543°E)
Time: 13:44:10
(UTC+00:00)

Daily predictions for brighter satellites

Satellite Brightness Start Highest point End
(mag) Time Altitude Azimuth Time Altitude Azimuth Time Altitude Azimuth
MOS 1-B 4.5 18:28:43 10° SSE 18:34:30 84° WSW 18:40:18 10° NNW
ERS-1 Rocket 4.4 18:31:09 10° ESE 18:34:59 23° ENE 18:38:50 10° NNE
Cosmos 1697 Rocket 4.3 18:31:19 10° NW 18:36:16 33° WSW 18:41:11 10° SSW
Cosmos 1763 Rocket 3.5 18:33:45 10° NNW 18:39:00 72° ENE 18:44:08 10° SSE
Tiangong -1.8 18:37:55 10° W 18:41:01 54° SSW 18:44:06 10° ESE
CSL-04 Rocket 3.9 18:36:30 10° S 18:41:46 74° WSW 18:47:07 10° NNW
Terra 3.2 18:43:38 10° ESE 18:47:18 23° ENE 18:50:58 10° NNE
Cosmos 1707 2.6 18:44:08 10° S 18:47:41 58° E 18:51:14 10° NNE
RESURS DK-1 4.3 18:45:14 10° N 18:48:03 18° NE 18:50:51 10° E
IRIDIUM 104 4.3 18:42:49 10° N 18:48:04 79° E 18:53:17 10° S
ATLAS 2AS CENTAUR R/B 4.2 18:44:12 10° NNW 18:49:44 25° NE 18:55:05 10° E
PSLV R/B 4.1 18:49:29 10° S 18:52:58 57° W 18:56:26 10° NNW
Cosmos 1980 Rocket 3.0 18:49:09 10° NNW 18:54:38 51° WSW 19:00:04 10° S
ASTRO E2 4.4 18:55:01 10° S 18:56:02 11° SSE 18:56:38 11° SSE
Cosmos 2322 Rocket 3.6 18:51:40 10° N 18:56:23 26° NE 19:01:06 10° ESE
COSMOS 2406 4.0 18:51:16 10° SW 18:56:55 57° WNW 19:02:35 10° NNE
IRIDIUM 114 4.4 18:51:59 10° N 18:57:13 85° W 19:02:26 10° S
CZ-4C R/B 3.4 18:57:20 10° NNE 19:01:29 69° ESE 19:05:34 10° S
ARGOS Delta rocket 3.8 18:58:11 10° SSE 19:02:33 56° ENE 19:06:51 10° N
Cosmos 1674 3.8 19:04:02 10° SSW 19:07:18 40° W 19:10:35 10° N
Cosmos 1553 Rocket 4.0 19:01:39 10° N 19:07:52 88° E 19:14:10 10° S
Cosmos 2278 3.9 19:03:39 10° NNW 19:09:21 64° ENE 19:14:09 14° SE
Timation 1 Rocket 4.4 19:04:49 10° S 19:10:36 56° ESE 19:16:25 10° NNE
Cosmos 468 Rocket 4.0 19:06:02 10° NNW 19:11:16 89° WSW 19:16:02 12° SSE
S3M 4.4 19:05:31 10° N 19:11:42 50° ENE 19:16:57 14° SSE
Ariane Rocket 3.9 19:08:46 14° SE 19:12:35 35° ENE 19:17:10 10° N
BREEZE-M DEB (TANK) 3.4 19:13:25 10° W 19:15:34 42° NNW 19:18:39 10° NE
Meteor 1-13 Rocket 4.2 19:10:37 10° S 19:16:25 80° E 19:22:07 10° NNE
Okean-O 3.0 19:13:46 10° S 19:18:06 61° WSW 19:22:29 10° NNW
Cosmos 2266 Rocket 4.1 19:12:33 10° S 19:18:45 64° E 19:25:05 10° NNE
Cosmos 2219 Rocket 4.1 19:17:04 10° N 19:20:50 18° NE 19:24:35 10° E
Cosmos 1300 3.9 19:18:58 10° NNE 19:21:53 23° ENE 19:23:20 18° ESE
Cosmos 1400 Rocket 2.7 19:19:40 11° S 19:23:16 61° E 19:27:05 10° NNE
SL-27 R/B 3.0 19:23:03 23° ESE 19:23:19 24° ESE 19:25:38 10° NE
Cosmos 1655 Rocket 4.4 19:18:24 12° SSE 19:24:02 48° E 19:30:08 10° NNE
Cosmos 2237 4.2 19:20:13 10° NNW 19:25:58 78° ENE 19:30:18 18° SSE
Cosmos 1850 Rocket 4.2 19:20:58 10° S 19:26:01 52° ESE 19:31:05 10° NNE
Cosmos 1356 Rocket 4.2 19:23:41 19° SSE 19:26:03 34° E 19:29:53 10° NNE
Cosmos 1441 Rocket 3.1 19:22:51 10° NNW 19:26:29 75° W 19:29:20 16° S
USA 245 3.4 19:24:51 21° SE 19:26:58 58° ENE 19:31:08 10° N
Cosmos 540 Rocket 4.0 19:22:19 10° NNW 19:27:21 57° WSW 19:32:01 12° S
ATLAS CENTAUR R/B 0.9 19:26:07 10° SSW 19:29:31 60° ESE 19:33:01 10° NE
Cosmos 1908 3.5 19:28:39 10° NNW 19:32:13 59° W 19:35:08 14° S
MOS 1 Rocket 3.8 19:31:12 19° SE 19:34:58 57° ENE 19:40:10 10° N
Cosmos 2228 Rocket 3.5 19:32:29 19° SSE 19:35:25 48° E 19:39:50 10° NNE
Okean O Rocket 3.9 19:34:12 10° SW 19:37:26 20° W 19:40:40 10° NW
Cosmos 1869 Rocket 3.6 19:33:26 10° N 19:37:54 81° W 19:41:13 18° S
Cosmos 968 Rocket 3.7 19:35:57 16° S 19:39:48 47° ESE 19:44:46 10° NNE
IRS-1C Rocket 4.3 19:35:23 14° S 19:39:52 71° WSW 19:45:08 10° NNW
Meteor 1-4 Rocket 4.0 19:41:08 16° E 19:41:08 16° E 19:42:43 10° NE
SPOT 3 Rocket 3.7 19:37:40 21° SE 19:40:57 58° ENE 19:46:02 10° N
SeaSat 1 2.4 19:39:21 22° SSE 19:42:32 80° ENE 19:47:28 10° NNW
Cosmos 1315 Rocket 4.4 19:42:13 18° E 19:42:38 18° E 19:45:22 10° NE
Cosmos 1953 4.4 19:43:07 10° NE 19:44:55 13° ENE 19:45:44 12° E
Cosmos 1741 Rocket 3.9 19:41:11 10° SSW 19:46:25 77° ESE 19:51:44 10° NNE
Cosmos 2360 Rocket 2.7 19:40:57 10° NNW 19:46:27 48° ENE 19:49:45 23° SE
SPOT 5 3.6 19:45:40 12° SSW 19:49:22 41° W 19:53:30 10° NNW
Meteor 1-23 Rocket 4.3 19:49:10 10° SSW 19:54:49 82° W 20:00:34 10° N
BlueWalker 3 3.9 19:57:39 15° E 19:57:39 15° E 19:58:31 10° ENE
USA 234 3.6 19:49:33 10° NE 19:56:04 70° NW 20:02:32 10° WSW
Landsat 4 3.3 19:56:28 38° SSE 19:57:40 86° ENE 20:01:07 10° NNW
SL-16 R/B 2.4 19:52:41 10° NNW 19:58:19 68° WSW 20:01:48 24° S
Meteor 1-15 Rocket 4.5 19:56:36 10° NNW 20:02:06 64° W 20:06:05 19° S
Cosmos 2333 Rocket 2.5 19:56:28 10° NNW 20:02:10 59° ENE 20:05:09 28° SE
SL-14 R/B 3.4 20:04:14 23° SSW 20:06:28 65° W 20:10:15 10° N
Landsat 5 3.4 20:02:30 10° NNE 20:06:31 61° E 20:07:58 37° SSE
Cosmos 1862 Rocket 3.4 20:05:38 30° S 20:07:47 79° E 20:12:13 10° N
Cosmos 2315 Rocket 4.0 20:02:46 10° N 20:09:11 86° W 20:13:14 24° S
Okean 3 3.3 20:09:59 39° SSE 20:11:24 69° E 20:15:33 10° NNE
Cosmos 1833 4.1 20:07:05 12° SSW 20:12:22 84° ESE 20:18:01 10° NNE
ERS-1 Rocket 3.9 20:10:00 18° SSW 20:13:26 43° W 20:18:14 10° NNW
Atlas Centaur 2 3.7 20:06:23 10° WSW 20:13:31 33° SSW 20:16:21 27° SSE
Cosmos 1346 Rocket 2.6 20:11:11 10° N 20:15:04 84° W 20:16:09 46° S
Cosmos 1932 4.4 20:10:02 10° SSW 20:16:21 74° ESE 20:22:38 10° NE
Tiangong 0.4 20:15:42 10° WSW 20:16:23 12° SW 20:16:23 12° SW
Cosmos 841 Rocket 4.3 20:14:34 10° NNW 20:19:34 45° WSW 20:22:24 24° SSW
Cosmos 1455 3.3 20:18:19 10° NNE 20:21:19 27° ENE 20:21:19 27° ENE
Terra 2.9 20:21:54 20° SSW 20:24:39 37° W 20:29:02 10° NNW
Meteor 2-20 4.4 20:18:44 10° N 20:24:56 89° ENE 20:28:01 32° S
Meteor 1-16 Rocket 4.3 20:19:25 10° N 20:25:22 71° E 20:27:53 36° SSE
SJ 16-02 1.3 20:23:41 31° SSW 20:25:42 82° WNW 20:30:02 10° NNE
RESURS DK-1 3.1 20:22:07 10° NW 20:25:58 41° WSW 20:27:05 33° SSW
Spot 2 Rocket 4.3 20:23:44 22° SSW 20:26:36 44° W 20:31:28 10° NNW
Cosmos 1707 Rocket 4.3 20:25:27 20° SSW 20:28:17 49° W 20:32:37 10° N
Aureole 3 3.5 20:27:07 40° SSW 20:28:27 75° W 20:33:08 10° N
CZ-2C R/B 4.2 20:27:01 10° NNE 20:31:07 38° E 20:31:21 37° ESE
Cosmos 2333 4.2 20:25:22 10° NNW 20:31:10 78° ENE 20:33:27 39° SE
Cosmos 2322 Rocket 2.8 20:35:13 10° NW 20:40:39 48° WSW 20:42:59 31° SSW
ATLAS 2AS CENTAUR R/B 2.6 20:34:36 10° NW 20:41:25 82° WSW 20:44:11 38° SSE
Cosmos 839 Rocket 4.1 20:35:34 10° NNW 20:42:20 75° ENE 20:44:53 38° SE
Cosmos 2297 Rocket 3.8 20:45:31 19° E 20:45:31 19° E 20:48:57 10° ENE
ARIANE 5 R/B 3.1 20:45:49 40° E 20:46:25 43° ENE 20:50:31 10° N
USA 281 3.6 20:47:30 31° ESE 20:50:30 55° ENE 20:56:54 10° NNW
Cosmos 1733 Rocket 4.3 20:47:26 10° NNW 20:51:27 34° W 20:53:00 26° SW
Cosmos 1745 Rocket 4.3 20:50:22 39° SE 20:52:15 52° E 20:58:24 10° NNE
SL-4 R/B 4.3 20:49:48 10° NW 20:52:56 22° NNE 20:56:12 10° ENE
Okean 1-7 3.3 20:53:31 46° SW 20:54:37 64° W 20:58:54 10° N
CZ-3 Stage 3 4.3 20:12:22 10° W 20:55:21 55° SSW 21:01:01 31° SE
Nadezhda 1 Rocket 4.1 20:57:51 10° N 21:04:04 63° E 21:05:54 44° SE
Cosmos 1386 Rocket 4.4 21:02:27 44° S 21:04:35 77° E 21:10:48 10° N
Cosmos 2219 Rocket 2.2 20:59:45 10° NNW 21:05:26 78° WSW 21:06:53 51° S
Cosmos 1908 Rocket 3.4 21:01:45 10° N 21:06:06 79° W 21:06:27 72° SSW
GP-B 2.9 21:01:46 10° N 21:06:12 82° E 21:06:32 74° SSE
COSMOS 2428 3.2 21:01:40 10° NNW 21:07:14 52° ENE 21:08:56 39° ESE
BREEZE-M DEB (TANK) 3.0 21:05:04 10° WNW 21:06:53 55° WNW 21:06:53 55° WNW
ATLAS CENTAUR R/B 4.2 21:05:58 10° WNW 21:07:33 12° NW 21:09:10 10° NNW
Okean 2 4.2 21:08:11 36° WSW 21:08:59 41° WNW 21:12:48 10° N
Cosmos 1782 Rocket 3.7 21:04:44 10° N 21:08:59 54° E 21:09:04 54° E
Cosmos 1315 Rocket 4.3 21:17:28 26° WSW 21:18:31 30° WNW 21:22:04 10° NNW
Cosmos 1953 3.1 21:17:21 10° NNW 21:20:51 40° W 21:20:51 40° W
H-2A R/B 4.4 21:21:17 10° ENE 21:22:19 12° ENE 21:22:19 12° ENE
Cosmos 1570 Rocket 3.9 21:18:31 10° NNW 21:23:55 90° SSW 21:24:46 64° SSE
Cosmos 304 Rocket 4.3 21:24:56 42° E 21:24:56 42° E 21:29:00 10° NNE
PSLV R/B 3.9 21:21:51 10° N 21:25:44 71° WNW 21:25:44 71° WNW
Cosmos 1300 Rocket 3.5 21:21:59 10° N 21:26:10 70° ENE 21:26:10 70° ENE
Cosmos 1242 Rocket 4.5 21:29:30 20° NW 21:29:30 20° NW 21:30:52 10° NNW
Cosmos 158 Rocket 3.9 21:24:28 10° NNW 21:29:46 71° ENE 21:30:29 62° ESE
Cosmos 2360 Rocket 3.7 21:25:39 10° NW 21:30:04 24° W 21:31:30 22° WSW
BlueWalker 3 3.1 21:31:50 27° W 21:33:20 40° NNW 21:36:54 10° NE
SL-24 R/B - RUBIN 2 4.5 21:27:31 10° NW 21:33:57 60° WSW 21:35:04 51° SSW
CENTAUR R/B 3.7 21:37:35 22° E 21:37:35 22° E 21:41:41 10° ENE
COSMOS 2455 2.7 21:35:30 53° SSW 21:37:03 85° ESE 21:43:08 10° NNE
ALOS 2 3.1 21:37:03 49° ENE 21:37:06 49° ENE 21:41:21 10° N
Cosmos 405 Rocket 4.4 21:35:14 10° NNE 21:37:51 24° ENE 21:37:51 24° ENE
NOSS 0 Rocket 4.0 21:37:48 10° NNW 21:44:03 70° ENE 21:45:42 49° SE
Cosmos 2333 Rocket 3.9 21:41:53 10° NW 21:45:55 20° W 21:47:09 18° WSW
Cosmos 773 Rocket 4.2 21:46:14 10° NNW 21:51:19 58° ENE 21:51:58 54° E
Spot 2 4.4 21:50:57 68° ESE 21:51:25 73° ENE 21:56:29 10° N
Cosmos 1709 Rocket 4.0 21:50:00 52° SSW 21:51:41 80° W 21:58:05 10° N
Cosmos 836 Rocket 4.3 21:47:06 10° NNW 21:52:19 83° WSW 21:52:43 76° SSW
Cosmos 1408 4.5 21:55:12 23° NNW 21:55:12 23° NNW 21:56:40 10° N
Cosmos 1455 4.5 21:53:26 10° NW 21:55:03 15° WNW 21:55:03 15° WNW
H-2A R/B 3.0 21:58:41 52° W 21:58:41 52° W 22:02:31 10° NNW
Cosmos 2208 Rocket 4.1 21:53:22 10° NNW 21:58:28 59° WSW 21:58:40 58° WSW
SL-16 R/B 4.4 21:54:50 10° N 21:58:45 19° NE 22:02:38 10° E
CZ-4C R/B 1.8 21:58:28 64° W 21:58:56 69° NW 22:04:17 10° NNE
Cosmos 1703 4.0 22:00:20 47° NNW 22:00:20 47° NNW 22:03:06 10° N
Cosmos 1892 4.4 22:03:36 24° NE 22:03:36 24° NE 22:05:26 10° NNE
Cosmos 2242 Rocket 4.1 22:02:21 51° W 22:02:32 51° W 22:07:00 10° N
Cosmos 1777 Rocket 3.9 22:03:25 75° SE 22:03:39 77° ESE 22:08:57 10° NNE
Cosmos 1503 Rocket 3.9 22:03:12 74° SSW 22:03:43 88° WNW 22:09:03 10° NNE
Cosmos 2237 Rocket 2.5 22:00:25 10° NNW 22:06:02 61° ENE 22:07:11 50° ESE
Sich 1 Rocket 4.4 22:01:59 10° N 22:05:58 40° ENE 22:05:58 40° ENE
Cosmos 2227 Rocket 2.5 22:08:29 49° ESE 22:08:36 49° ESE 22:14:03 10° NE
Cosmos 2322 4.3 22:04:00 10° NW 22:09:14 40° WSW 22:09:35 39° WSW
SL-12 R/B(2) 4.4 22:07:54 43° SSE 22:09:43 49° ESE 22:18:26 10° NE
Meteor 1-24 Rocket 3.7 22:10:17 61° SW 22:11:16 78° W 22:16:57 10° N
GEOS 3 Rocket 4.0 22:11:20 10° NE 22:15:46 45° ESE 22:15:46 45° ESE
Cosmos 371 Rocket 3.9 22:15:48 43° W 22:16:30 46° WNW 22:21:09 10° N
SL-23 DEB 4.4 22:17:08 69° SW 22:17:46 90° SW 22:25:26 10° NE
Cosmos 1980 3.6 22:13:35 10° NNW 22:19:17 83° ENE 22:20:05 67° SE
Cosmos 2154 Rocket 4.4 22:22:29 43° ESE 22:23:39 49° E 22:29:38 10° NNE
NOSS 3-2 (A) 4.1 22:25:02 31° E 22:25:02 31° E 22:29:25 10° NE
Cosmos 2297 Rocket 2.5 22:27:16 47° WSW 22:28:36 59° WNW 22:34:11 10° NNE
Cosmos 1825 3.5 22:31:23 34° NNE 22:31:23 34° NNE 22:33:27 10° NNE
Cosmos 2219 3.8 22:32:08 41° ESE 22:32:16 41° ESE 22:37:31 10° NE
SL-4 R/B 2.5 22:28:11 10° NW 22:31:56 60° N 22:31:56 60° N
USA 281 4.3 22:34:22 27° WSW 22:35:15 28° WSW 22:40:45 10° NW
Okean 1 Rocket 3.4 22:34:54 10° N 22:38:57 58° ENE 22:38:57 58° ENE
Cosmos 783 Rocket 4.4 22:37:14 10° NNW 22:42:32 77° WSW 22:42:45 75° SW
PSLV R/B 4.2 22:39:56 10° N 22:43:45 46° WNW 22:43:45 46° WNW
COSMOS 2428 4.2 22:46:46 10° NW 22:50:54 22° W 22:50:54 22° W
Cosmos 2181 Rocket 4.3 22:52:33 10° NNW 22:58:29 50° W 22:59:29 46° WSW
H-2A R/B 2.6 22:55:15 10° N 22:59:07 48° WNW 22:59:07 48° WNW
Cosmos 1975 Rocket 4.0 23:00:38 37° E 23:00:38 37° E 23:04:35 10° NNE
Cosmos 2263 Rocket 2.5 23:00:27 49° SE 23:00:54 50° ESE 23:06:16 10° NE
Cosmos 292 Rocket 4.1 23:01:50 54° E 23:01:50 54° E 23:06:25 10° NNE
Cosmos 2074 Rocket 4.2 23:05:16 49° SW 23:06:37 60° W 23:12:46 10° N
Cosmos 1455 Rocket 3.3 23:11:22 10° N 23:15:46 62° E 23:15:56 61° E
Okean 2 Rocket 4.4 23:14:38 10° NNW 23:18:04 30° WNW 23:18:04 30° WNW
Cosmos 1025 Rocket 3.4 23:25:42 53° WNW 23:25:42 53° WNW 23:29:47 10° N
CENTAUR R/B 2.8 23:24:42 38° WSW 23:26:46 57° NW 23:33:32 10° NNE
Helios 1A Rocket 3.4 23:26:48 48° ENE 23:26:49 48° ENE 23:30:30 10° N
Cosmos 990 Rocket 4.5 23:28:09 43° W 23:29:01 47° WNW 23:33:59 10° N
Cosmos 1461 3.4 23:31:16 49° ENE 23:31:16 49° ENE 23:34:27 10° NE
In-Cosmos 22 Rocket 4.2 23:32:43 56° S 23:34:02 83° E 23:39:54 10° N
COBE Rocket 4.5 23:35:36 10° NNE 23:40:40 52° E 23:41:51 43° SE
IDEFIX/ARIANE 42P 3.5 23:38:30 10° NNE 23:43:25 39° E 23:44:56 32° SE
SL-16 R/B 2.1 23:37:46 10° NNW 23:43:28 74° WSW 23:44:44 54° S
Nadezhda 3 Rocket 4.4 23:39:53 10° NNW 23:45:49 47° W 23:47:09 41° SW
CZ-4C R/B 4.5 23:45:45 10° WNW 23:48:38 15° NNW 23:51:53 10° N
Cosmos 2218 Rocket 4.1 23:46:34 41° SSE 23:48:49 69° E 23:54:57 10° NNE
Cosmos 2237 Rocket 3.9 23:45:45 10° WNW 23:48:59 18° W 23:48:59 18° W
Cosmos 1538 Rocket 4.2 23:45:41 10° NNW 23:50:40 48° WSW 23:50:57 48° WSW
Cosmos 2082 3.8 23:49:30 48° SW 23:50:58 68° WNW 23:56:35 10° NNE
BREEZE-M DEB (TANK) 2.6 23:47:45 10° WNW 23:51:40 50° NNW 23:51:40 50° NNW
Cosmos 2227 Rocket 3.8 23:50:16 18° W 23:52:53 26° NW 23:57:34 10° N
CZ-2C R/B 3.8 23:50:35 15° SE 23:54:24 38° ENE 23:59:19 10° N
Cosmos 1869 3.3 23:51:18 10° N 23:54:59 65° E 23:54:59 65° E
